Weather History for Quillayute, WA

Change the Weather History Date:

Monday, December 17, 2012

  Actual Average Record
Temperature  
Mean Temperature 39 °F 40 °F  
Max Temperature 43 °F 46 °F 55 °F (1981)
Min Temperature 34 °F 34 °F 21 °F (1987)
Degree Days  
Heating Degree Days 26 25  
Month to date heating degree days 417  
Since 1 July heating degree days 2131  
Cooling Degree Days 0 0  
Month to date cooling degree days 0  
Year to date cooling degree days 19  
Moisture  
Dew Point 36 °F    
Average Humidity 84    
Maximum Humidity 96    
Minimum Humidity 51    
Precipitation  
Precipitation 0.50 in 0.40 in 4.77 in (1979)
Month to date precipitation 7.34  
Year to date precipitation 93.89  
Sea Level Pressure  
Sea Level Pressure 29.36 in    
Wind  
Wind Speed 13 mph (West)    
Max Wind Speed 28 mph    
Max Gust Speed 40 mph    
Visibility 4 miles    
Events Rain , Snow , Thunderstorm    
T = Trace of Precipitation, MM = Missing Value Source: NWS Daily Summary

Daily Weather History Graph

Daily Weather History Graph

Search for Another Location

Airport:

Trip Planner

Search our weather history database for the weather conditions in past years. The results will help you decide how hot, cold, wet, or windy it might be!

Date:

Astronomy

Dec. 17, 2012 Rise Set
Actual Time 8:03 AM PST 4:26 PM PST
Civil Twilight 7:26 AM PST 5:02 PM PST
Nautical Twilight 6:47 AM PST 5:42 PM PST
Astronomical Twilight 6:09 AM PST 6:20 PM PST
Moon 10:55 AM PST (12/17) 10:16 PM PST (12/17)
Length of Visible Light 9h 36m
Length of Day
8h 23m
Waxing Crescent, 26% of the Moon is Illuminated
Dec 17
Waxing Crescent
Dec 19
First Quarter
Dec 28
Full
Jan 4
Last Quarter
Jan 11
New

Hourly Weather History & Observations

Time (PST) Temp. Windchill Dew Point Humidity Pressure Visibility Wind Dir Wind Speed Gust Speed Precip Events Conditions
12:27 AM 42.8 °F 40.1 °F 41.0 °F 93% 28.87 in 4.0 mi ESE 4.6 mph - 0.00 in Rain Light Rain
12:53 AM 42.1 °F 37.7 °F 41.0 °F 96% 28.87 in 8.0 mi East 6.9 mph - 0.00 in   Overcast
1:10 AM 42.8 °F 39.3 °F 41.0 °F 93% 28.88 in 1.8 mi East 5.8 mph - 0.01 in Rain Rain
1:18 AM 42.8 °F 38.0 °F 41.0 °F 93% 28.87 in 1.0 mi East 8.1 mph - 0.07 in Rain Rain
1:24 AM 42.8 °F 38.0 °F 41.0 °F 93% 28.87 in 2.0 mi East 8.1 mph - 0.07 in Rain Light Rain
1:32 AM 42.8 °F 38.6 °F 41.0 °F 93% 28.88 in 3.0 mi East 6.9 mph - 0.08 in Rain Light Rain
1:38 AM 42.8 °F 40.1 °F 41.0 °F 93% 28.88 in 2.5 mi ESE 4.6 mph - 0.08 in Rain Light Rain
1:50 AM 42.8 °F 38.6 °F 41.0 °F 93% 28.88 in 3.0 mi East 6.9 mph - 0.10 in Rain Light Rain
1:53 AM 42.1 °F 38.4 °F 41.0 °F 96% 28.89 in 4.0 mi East 5.8 mph - 0.10 in Rain Light Rain
2:01 AM 42.8 °F 40.1 °F 41.0 °F 93% 28.89 in 6.0 mi East 4.6 mph - 0.00 in   Overcast
2:12 AM 41.0 °F 32.2 °F 39.2 °F 93% 28.95 in 1.8 mi WNW 18.4 mph 38.0 mph 0.01 in Rain Rain
2:21 AM 39.2 °F 28.3 °F 37.4 °F 93% 28.97 in 1.2 mi WNW 25.3 mph 36.8 mph 0.04 in Rain Rain
2:31 AM 39.2 °F 29.6 °F 37.4 °F 93% 29.00 in 1.2 mi WNW 19.6 mph 39.1 mph 0.08 in Rain Rain
2:33 AM 39.2 °F 30.8 °F 37.4 °F 93% 29.00 in 1.5 mi WNW 15.0 mph 39.1 mph 0.10 in Rain Rain
2:53 AM 41.0 °F 33.1 °F 39.0 °F 93% 29.03 in 1.8 mi WNW 15.0 mph 33.4 mph 0.17 in Rain Rain
2:57 AM 42.8 °F 35.8 °F 39.2 °F 87% 29.04 in 2.0 mi WNW 13.8 mph 27.6 mph 0.02 in Rain Rain
3:06 AM 42.8 °F 34.0 °F 39.2 °F 87% 29.06 in 2.5 mi West 20.7 mph 31.1 mph 0.04 in Rain Light Rain
3:16 AM 42.8 °F 36.2 °F 39.2 °F 87% 29.08 in 3.0 mi WNW 12.7 mph 29.9 mph 0.05 in Rain Light Rain
3:39 AM 42.8 °F 35.8 °F 39.2 °F 87% 29.11 in 5.0 mi WNW 13.8 mph 23.0 mph 0.05 in Rain Light Rain
3:45 AM 42.8 °F 37.0 °F 39.2 °F 87% 29.12 in 2.5 mi WNW 10.4 mph 24.2 mph 0.06 in Rain Light Rain
3:53 AM 43.0 °F 36.0 °F 39.9 °F 89% 29.13 in 3.0 mi West 13.8 mph - 0.07 in Rain Light Rain
4:30 AM 42.8 °F 35.1 °F 39.2 °F 87% 29.19 in 4.0 mi West 16.1 mph 36.8 mph 0.01 in Rain Light Rain
4:40 AM 42.8 °F 34.3 °F 39.2 °F 87% 29.20 in 4.0 mi West 19.6 mph 31.1 mph 0.01 in Rain Light Rain
4:53 AM 42.1 °F 34.5 °F 39.0 °F 89% 29.22 in 4.0 mi West 15.0 mph 29.9 mph 0.02 in Rain Light Rain
5:01 AM 42.8 °F 34.3 °F 39.2 °F 87% 29.23 in 4.0 mi West 19.6 mph 26.5 mph 0.00 in Rain Light Rain
5:22 AM 42.8 °F 35.1 °F 37.4 °F 81% 29.25 in 5.0 mi WNW 16.1 mph 40.3 mph 0.01 in   Haze
5:41 AM 42.8 °F 33.8 °F 39.2 °F 87% 29.28 in 2.5 mi West 21.9 mph 34.5 mph 0.02 in Rain Light Rain
5:49 AM 42.8 °F 34.3 °F 37.4 °F 81% 29.29 in 5.0 mi West 19.6 mph 32.2 mph 0.03 in   Haze
5:53 AM 43.0 °F 34.5 °F 37.9 °F 82% 29.30 in 5.0 mi West 19.6 mph 31.1 mph 0.03 in   Haze
6:34 AM 41.0 °F 30.9 °F 37.4 °F 87% 29.36 in 3.0 mi West 24.2 mph 34.5 mph 0.01 in Rain Light Rain
6:48 AM 41.0 °F 31.6 °F 35.6 °F 81% 29.37 in 4.0 mi West 20.7 mph 39.1 mph 0.01 in Rain Light Rain
6:53 AM 42.1 °F 33.3 °F 36.0 °F 79% 29.38 in 5.0 mi West 19.6 mph 39.1 mph 0.01 in Rain Light Rain
7:53 AM 41.0 °F 32.2 °F 36.0 °F 82% 29.44 in 3.0 mi WNW 18.4 mph 28.8 mph 0.01 in Rain Light Rain
8:53 AM 42.1 °F 33.9 °F 32.0 °F 67% 29.51 in 4.0 mi West 17.3 mph 28.8 mph 0.01 in   Haze
9:53 AM 42.1 °F 34.5 °F 30.0 °F 62% 29.56 in 4.0 mi West 15.0 mph 28.8 mph N/A   Haze
10:53 AM 43.0 °F 34.8 °F 30.0 °F 60% 29.62 in 4.0 mi WNW 18.4 mph 32.2 mph 0.00 in   Haze
11:53 AM 43.0 °F 34.5 °F 28.9 °F 58% 29.65 in 4.0 mi West 19.6 mph 29.9 mph N/A   Haze
12:53 PM 42.1 °F 34.5 °F 30.9 °F 65% 29.68 in 4.0 mi West 15.0 mph 27.6 mph 0.00 in Thunderstorm Haze
1:08 PM 42.8 °F 35.8 °F 33.8 °F 70% 29.68 in 4.0 mi West 13.8 mph 25.3 mph N/A   Haze
1:48 PM 39.2 °F 32.5 °F 32.0 °F 75% 29.69 in 2.5 mi WNW 10.4 mph 20.7 mph 0.02 in Rain Light Rain
1:53 PM 39.0 °F 35.7 °F 33.1 °F 79% 29.70 in 4.0 mi Variable 4.6 mph 20.7 mph 0.02 in   Haze
4:53 PM 37.9 °F 32.1 °F 28.9 °F 70% 29.77 in 6.0 mi West 8.1 mph - 0.00 in   Haze
5:53 PM 39.0 °F 33.4 °F 28.9 °F 67% 29.78 in 6.0 mi WSW 8.1 mph - N/A   Haze
6:53 PM 37.9 °F 30.5 °F 30.0 °F 73% 29.79 in 6.0 mi SW 11.5 mph 19.6 mph 0.02 in   Haze
7:53 PM 37.9 °F 30.5 °F 32.0 °F 79% 29.81 in 6.0 mi West 11.5 mph - 0.00 in   Haze
8:53 PM 37.0 °F 33.3 °F 32.0 °F 82% 29.82 in 6.0 mi SSW 4.6 mph - N/A   Haze
9:53 PM 35.1 °F 31.0 °F 32.0 °F 89% 29.82 in 5.0 mi NNW 4.6 mph - 0.00 in   Overcast
10:51 PM 35.6 °F 29.2 °F 33.8 °F 93% 29.83 in 2.5 mi West 8.1 mph 17.3 mph 0.01 in Rain Rain
10:53 PM 36.0 °F 30.3 °F 33.1 °F 89% 29.83 in 2.5 mi West 6.9 mph 17.3 mph 0.02 in Rain Rain
11:02 PM 35.6 °F 29.9 °F 33.8 °F 93% 29.82 in 6.0 mi West 6.9 mph 16.1 mph 0.00 in Rain Light Rain
11:34 PM 35.6 °F 31.7 °F 33.8 °F 93% 29.83 in 2.5 mi Variable 4.6 mph - 0.01 in Rain Rain
11:38 PM 35.6 °F 30.7 °F 33.8 °F 93% 29.83 in 1.8 mi West 5.8 mph - 0.02 in Snow Light Snow
11:44 PM 35.6 °F 31.7 °F 33.8 °F 93% 29.83 in 3.0 mi SW 4.6 mph - 0.02 in Snow Light Snow
11:51 PM 35.6 °F 31.7 °F 33.8 °F 93% 29.82 in 4.0 mi ESE 4.6 mph - 0.02 in Rain Light Rain
11:53 PM 34.0 °F 31.0 °F 33.1 °F 96% 29.83 in 4.0 mi SE 3.5 mph - 0.02 in Rain Light Rain